Voltar ao catálogo

FENGYUN 1C DEB

AtivoSSO
NORAD 30564·DEBRIS·🇨🇳 China

Lançado May 10, 1999 de Taiyuan Satellite Launch Center

Loading…

Próximas Passagens (próximas 24 horas)

TLE

AtualizadoSource: Space-Track

Época: Sep 14, 2026, 07:06 UTC

1 30564U 99025ALE 26257.29648400  .00000830  00000-0  43860-3 0  9993
2 30564  98.7914 266.3459 0202193  64.5010 310.6936 14.06399951  1675

Acompanhe FENGYUN 1C DEB em tempo real com AllMySat

Download on the App Store